TimeEDT,TemperatureF,Dew PointF,Humidity,Sea Level PressureIn,VisibilityMPH,Wind Direction,Wind SpeedMPH,Gust SpeedMPH,PrecipitationIn,Events,Conditions,WindDirDegrees,DateUTC
12:55 AM,36.7,30.7,79,30.13,10.0,South,5.8,-,N/A,,Clear,180,2012-10-09 04:55:00
1:55 AM,37.0,30.9,79,30.11,10.0,South,8.1,-,N/A,,Clear,170,2012-10-09 05:55:00
2:55 AM,37.4,31.5,79,30.11,10.0,South,8.1,-,N/A,,Clear,170,2012-10-09 06:55:00
3:55 AM,37.0,31.6,81,30.10,10.0,South,6.9,-,N/A,,Clear,180,2012-10-09 07:55:00
4:55 AM,37.6,32.2,81,30.10,10.0,South,8.1,-,N/A,,Clear,190,2012-10-09 08:55:00
5:55 AM,38.3,32.7,80,30.10,10.0,South,8.1,-,N/A,,Clear,190,2012-10-09 09:55:00
6:55 AM,39.0,33.1,79,30.10,10.0,South,8.1,-,N/A,,Clear,180,2012-10-09 10:55:00
7:55 AM,37.4,32.7,83,30.10,10.0,South,8.1,-,N/A,,Clear,180,2012-10-09 11:55:00
8:55 AM,42.4,34.7,74,30.10,10.0,South,11.5,-,N/A,,Clear,190,2012-10-09 12:55:00
9:55 AM,47.7,36.7,66,30.10,10.0,SSW,11.5,-,N/A,,Clear,200,2012-10-09 13:55:00
10:30 AM,51.8,37.4,58,30.07,10.0,SW,13.8,-,N/A,,Clear,220,2012-10-09 14:30:00
10:55 AM,53.4,37.9,56,30.09,10.0,SSW,15.0,23.0,N/A,,Clear,210,2012-10-09 14:55:00
11:55 AM,56.8,38.5,50,30.06,10.0,SSW,19.6,-,N/A,,Clear,210,2012-10-09 15:55:00
12:55 PM,58.8,38.3,47,30.04,10.0,SW,20.7,26.5,N/A,,Clear,220,2012-10-09 16:55:00
1:55 PM,60.3,38.8,45,30.02,10.0,SW,18.4,-,N/A,,Clear,220,2012-10-09 17:55:00
2:55 PM,61.9,39.2,43,29.98,10.0,SSW,17.3,-,N/A,,Clear,210,2012-10-09 18:55:00
3:55 PM,62.6,38.3,41,29.95,10.0,SW,18.4,24.2,N/A,,Clear,230,2012-10-09 19:55:00
4:55 PM,62.2,38.8,42,29.94,10.0,SW,19.6,25.3,N/A,,Clear,220,2012-10-09 20:55:00
5:55 PM,60.6,38.7,44,29.93,10.0,SW,17.3,21.9,N/A,,Clear,220,2012-10-09 21:55:00
6:55 PM,57.6,39.2,50,29.93,10.0,SSW,11.5,-,N/A,,Clear,210,2012-10-09 22:55:00
7:55 PM,52.2,40.1,64,29.94,10.0,SSW,8.1,-,N/A,,Clear,200,2012-10-09 23:55:00
8:55 PM,48.6,39.9,72,29.93,10.0,South,9.2,-,N/A,,Clear,190,2012-10-10 00:55:00
9:55 PM,50.5,40.5,68,29.93,10.0,SSW,9.2,-,N/A,,Clear,210,2012-10-10 01:55:00
10:55 PM,51.4,40.6,67,29.91,10.0,SSW,11.5,-,N/A,,Clear,200,2012-10-10 02:55:00
11:55 PM,52.2,41.4,67,29.89,10.0,SSW,12.7,-,N/A,,Mostly Cloudy,210,2012-10-10 03:55:00